User: anonymous   Login
Location: Unspecified
(0.0000°N, 0.0000°E)
Time: 07:45:33
(UTC+00:00)
Language:

MERIDIAN 4 - Orbit

View from above orbital plane
View from above orbital plane
View from above satellite
View from above satellite

Ground track
Ground track

The orbit data is extracted from the following two-line orbital elements,

1 37398U 11018A   19082.43466253 +.00000099 +00000-0 +10000-3 0  9996
2 37398 064.3901 093.9158 7085662 257.3434 278.4542 02.00621984057761
Epoch (UTC): 23 March 2019 10:25:54
Eccentricity: 0.7085662
inclination: 64.3901°
perigee height: 1361 km
apogee height: 38993 km
right ascension of ascending node: 93.9158°
argument of perigee: 257.3434°
revolutions per day: 2.00621984
mean anomaly at epoch: 278.4542°
orbit number at epoch: 5776

The dashed part of the orbit path shows where the satellite is in the earth's shadow,  

DLR